Location: Saalfelden+am+Steinernen+Meer
(47.4274°N, 12.8411°E)
Time: 02:22:15
(UTC+01:00)

Tiangong 2 - Visible Passes

Search period start: 17 January 2018 00:00
Search period end: 27 January 2018 00:00
Orbit: 384 x 390 km, 42.8° (Epoch: 16 January)

Date Brightness Start Highest point End Pass type
(mag) Time Alt. Az. Time Alt. Az. Time Alt. Az.
18 Jan 3.8 06:36:40 10° SSW 06:38:55 18° SSE 06:41:11 10° ESE visible
19 Jan 4.0 05:39:05 10° S 05:40:27 13° SSE 05:41:56 10° SE visible
20 Jan 3.1 06:15:46 12° SW 06:18:06 24° SSE 06:20:46 10° ESE visible
21 Jan 3.6 05:20:02 18° SSE 05:20:02 18° SSE 05:21:53 10° ESE visible
21 Jan 2.5 06:52:58 10° WSW 06:55:54 34° S 06:58:51 10° ESE visible
22 Jan 2.5 05:56:27 26° SSW 05:57:18 30° S 06:00:10 10° ESE visible
23 Jan 4.1 05:00:31 15° ESE 05:00:31 15° ESE 05:01:24 10° ESE visible
23 Jan 2.3 06:32:48 14° WSW 06:35:07 35° S 06:38:04 10° ESE visible
24 Jan 2.4 05:36:48 33° SSE 05:36:48 33° SSE 05:39:26 10° ESE visible
24 Jan 2.7 07:10:09 10° WSW 07:12:55 27° SSW 07:15:40 10° SE visible
25 Jan 2.3 06:13:03 23° SW 06:14:18 32° S 06:17:12 10° ESE visible
26 Jan 3.3 05:17:01 23° SE 05:17:01 23° SE 05:18:36 10° ESE visible
26 Jan 3.0 06:49:32 10° WSW 06:52:01 21° SSW 06:54:29 10° SSE visible
